Location: Betra
(48.4113°N, 8.6634°E)
Time: 16:59:33
(UTC+00:00)

Resurs 1-4 Rocket - Pass Details

Date: 05 August 2024
Orbit: 798 x 813 km, 98.7° (Epoch: 06 September)

Event Time Altitude Azimuth Distance (km) Brightness Sun altitude
Rises 01:18:27 0° 17° (NNE) 3,348 6.8 -20.5°
Reaches altitude 10° 01:20:50 10° 20° (NNE) 2,411 5.8 -20.3°
Maximum altitude 01:26:08 65° 102° (ESE) 893 2.3 -19.9°
Enters shadow 01:28:38 31° 174° (S) 1,381 2.9 -19.7°
